This is the latest recevied weather packets stored in our database for station/object JS2WAD-13. If no packets are shown the sender has not sent any weather packets the latest 10 day(s).
| Time | Temp. | Humidity | Pressure | Rain* | Wind** | Luminosity | Snow |
|---|---|---|---|---|---|---|---|
| 1777348307 | 25.56° C | 48% | 903.2 hPa | 0 mm | - | 733 W/m² | - |
| 1777348007 | 25.56° C | 48% | 903.1 hPa | 0 mm | - | 775 W/m² | - |
| 1777347707 | 25.56° C | 48% | 903.1 hPa | 0 mm | - | 854 W/m² | - |
| 1777347407 | 25.56° C | 48% | 903.4 hPa | 0 mm | - | 846 W/m² | - |
| 1777347107 | 25.56° C | 48% | 903.5 hPa | 0 mm | - | 916 W/m² | - |
| 1777346807 | 25.56° C | 48% | 903.5 hPa | 0 mm | - | 904 W/m² | - |
| 1777346507 | 25.56° C | 48% | 903.5 hPa | 0 mm | - | 867 W/m² | - |
| 1777346207 | 25° C | 49% | 903.7 hPa | 0 mm | - | 856 W/m² | - |
| 1777345907 | 25° C | 49% | 903.7 hPa | 0 mm | - | 211 W/m² | - |
| 1777345607 | 25° C | 52% | 903.7 hPa | 0 mm | - | 137 W/m² | - |
| 1777345307 | 25° C | 49% | 903.8 hPa | 0 mm | - | 680 W/m² | - |
| 1777345007 | 25° C | 49% | 904 hPa | 0 mm | - | 824 W/m² | - |
| 1777344707 | 24.44° C | 49% | 904 hPa | 0 mm | - | 837 W/m² | - |
| 1777344407 | 24.44° C | 50% | 904.1 hPa | 0 mm | - | 886 W/m² | - |
| 1777344107 | 24.44° C | 50% | 904.2 hPa | 0 mm | - | 844 W/m² | - |
| 1777343807 | 24.44° C | 51% | 904.2 hPa | 0 mm | - | 835 W/m² | - |
| 1777343507 | 24.44° C | 51% | 904.1 hPa | 0 mm | - | 847 W/m² | - |
| 1777343207 | 23.89° C | 52% | 904.1 hPa | 0 mm | - | 831 W/m² | - |
| 1777342907 | 23.33° C | 53% | 904.3 hPa | 0 mm | - | 149 W/m² | - |
| 1777342607 | 23.33° C | 54% | 904.3 hPa | 0 mm | - | 125 W/m² | - |
| 1777342307 | 22.78° C | 55% | 904.3 hPa | 0 mm | - | 803 W/m² | - |
| 1777342007 | 22.78° C | 55% | 904.4 hPa | 0 mm | - | 823 W/m² | - |
| 1777341707 | 22.22° C | 61% | 904.5 hPa | 0 mm | - | 788 W/m² | - |
| 1777341407 | 22.22° C | 57% | 904.6 hPa | 0 mm | - | 186 W/m² | - |
| 1777341107 | 21.67° C | 57% | 904.6 hPa | 0 mm | - | 186 W/m² | - |
* Rain latest hour (hover to see other rain measurements)
** Current wind speed in m/s (hover to see current wind gust speed)